SCP
0 0 0 0 0 0 0 0 0 0 0 0 0 0 0 0 0 0 0 0 0 0 1 1 1 1 1 1 1 1 1 1 0 0 0 0 0 0 0 0 0 0 0
0 0 0 0 0 0 0 0 0 0 0 0 0 0 0 0 0 0 0 0 0 0 1 1 1 1 1 1 1 1 1 1 1 0 0 0 0 0 0 0 0 0 0
0 0 0 0 0 0 0 0 0 0 0 0 0 0 0 0 0 0 0 0 0 0 1 1 1 1 1 1 1 1 1 1 1 1 1 1 1 1 0 0 0 0 0
0 0 0 0 0 0 0 0 0 0 0 0 0 0 0 0 0 0 0 0 0 0 1 1 1 1 1 1 1 1 1 1 1 1 1 1 1 1 1 1 1 1 1
0 0 0 0 0 0 0 0 0 0 0 0 0 0 0 0 0 0 0 0 0 0 1 1 1 1 1 1 1 1 1 1 2 2 2 2 1 1 1 1 1 1 1
0 0 0 0 0 0 0 0 0 0 0 0 0 0 0 0 0 0 0 0 0 0 0 1 1 1 1 2 1 1 1 1 1 2 2 2 2 1 1 1 1 1 1
0 0 0 0 0 0 0 0 0 0 0 0 0 0 0 0 0 0 0 0 0 0 0 1 1 1 1 1 1 1 1 1 1 1 2 2 2 1 1 1 1 1 1
0 0 0 0 0 0 0 0 0 0 0 0 0 0 0 0 0 0 0 0 0 0 0 0 1 1 1 1 1 1 1 1 1 1 1 2 1 1 1 1 1 1 1
0 0 0 0 0 0 0 0 0 0 0 0 0 0 0 0 0 0 0 0 0 0 0 0 0 0 0 0 0 1 1 1 1 1 1 1 1 1 1 1 1 1 1
0 0 0 0 0 0 0 0 0 0 0 0 0 0 0 0 0 0 0 0 0 0 0 0 0 0 0 0 0 0 1 1 1 1 2 2 1 1 1 1 1 1 1
0 0 0 0 0 0 0 0 0 0 0 0 0 0 0 0 0 0 0 0 0 0 0 0 0 0 0 0 0 0 0 1 1 2 2 2 2 2 1 1 1 1 1
0 0 0 0 0 0 0 0 0 0 0 0 0 0 0 0 0 0 0 0 0 0 0 0 0 0 0 0 0 0 0 1 1 2 2 2 2 2 2 1 1 1 1
0 0 0 0 0 0 0 0 0 0 0 0 0 0 0 0 0 0 0 0 0 0 0 0 0 0 0 0 0 0 0 0 1 1 1 1 1 1 1 1 1 1 0
0 0 0 0 0 0 0 0 0 0 0 0 0 0 0 0 0 0 0 0 0 0 0 0 0 0 0 0 0 0 0 0 0 0 0 0 0 1 0 0 0 0 0
0 0 0 0 0 0 0 0 0 0 0 0 0 0 0 0 0 0 0 0 0 0 0 0 0 0 0 0 0 0 0 0 0 0 0 0 0 0 0 0 0 0 0
0 0 0 0 0 0 0 0 0 0 0 0 0 0 0 0 0 0 0 0 0 0 0 0 0 0 0 0 0 0 0 0 0 0 0 0 0 0 0 0 0 0 0
0 0 0 0 0 0 0 0 0 0 0 0 0 0 0 0 0 0 0 0 0 0 0 0 0 0 0 0 0 0 0 0 0 0 0 0 0 0 0 0 0 0 0
0 0 0 0 0 0 0 0 0 0 0 0 0 0 0 0 0 0 0 0 0 0 0 0 0 0 0 0 0 0 0 0 0 0 0 0 0 0 0 0 0 0 0
0 0 0 0 0 0 0 0 0 0 0 0 0 0 0 0 0 0 0 0 0 0 0 0 0 0 0 0 0 0 0 0 0 0 0 0 0 0 0 0 0 0 0
0 0 0 0 0 0 0 0 0 0 0 0 0 0 0 0 0 0 0 0 0 0 0 0 0 0 0 0 0 0 0 0 0 0 0 0 0 0 0 0 0 0 0
0 0 0 0 0 0 0 0 0 0 0 0 0 0 0 0 0 0 0 0 0 0 0 0 0 0 0 0 0 0 0 0 0 0 0 0 0 0 0 0 0 0 0
0 0 0 0 0 0 0 0 0 0 0 0 0 0 0 0 0 0 0 0 0 0 0 0 0 0 0 0 0 0 0 0 0 0 0 0 0 0 0 0 0 0 0
0 0 0 0 0 0 0 0 0 0 0 0 0 0 0 0 0 0 0 0 0 0 0 0 0 0 0 0 0 0 0 0 0 0 0 0 0 0 0 0 0 0 0
0 0 0 0 0 0 0 0 0 0 0 0 0 0 0 0 0 0 0 0 0 0 0 0 0 0 0 0 0 0 0 0 0 0 0 0 0 0 0 0 0 0 0
0 0 0 0 0 0 0 0 0 0 0 0 0 0 0 0 0 0 0 0 0 0 0 0 0 0 0 0 0 0 0 0 0 0 0 0 0 0 0 0 0 0 0
0 0 0 0 0 0 0 0 0 0 0 0 0 0 0 0 0 0 0 0 0 0 0 0 0 0 0 0 0 0 0 0 0 0 0 0 0 0 0 0 0 0 0
Wind_Speed
10 9 7 6 5 3 3 3 3 4 4 4 4 5 5 5 5 5 4 11 14 16 18 19 18 19 19 18 17 16 16 15 13 12 11 10 8 7 6 5 4 4 3
9 10 9 7 6 5 3 3 4 4 4 3 5 5 5 5 5 6 6 7 13 16 18 20 20 20 20 19 19 18 17 16 15 13 12 11 9 8 7 5 4 3 3
11 11 9 9 8 7 6 4 4 3 3 4 5 6 5 6 5 6 6 6 6 11 17 20 21 20 20 20 20 19 18 17 16 14 13 12 10 9 8 6 5 4 3
12 11 9 9 10 8 6 5 4 3 4 4 5 5 5 5 6 7 6 6 6 6 10 17 20 20 20 20 19 19 19 18 16 15 15 12 10 10 9 7 5 4 3
12 10 9 8 10 8 7 7 5 4 4 5 5 5 5 5 6 6 6 7 7 7 6 10 16 18 19 20 20 20 20 19 18 17 16 13 12 11 10 8 6 5 4
12 10 8 10 10 8 8 7 8 6 5 5 5 5 5 5 4 5 6 6 6 8 8 7 7 9 16 19 20 20 20 20 20 18 16 15 14 12 11 9 7 5 4
13 11 9 10 10 9 9 10 9 8 6 4 3 4 4 5 5 5 5 5 6 7 7 8 6 5 5 15 19 20 21 21 21 20 18 18 16 14 11 9 6 5 4
14 12 12 11 11 10 11 10 9 7 5 4 4 3 3 3 4 4 3 4 5 4 6 7 7 6 5 4 8 16 17 20 21 20 20 19 18 15 12 9 7 6 5
14 13 12 11 11 10 10 11 10 9 8 6 5 5 4 6 3 2 2 2 3 4 5 5 7 7 6 5 5 10 14 17 20 20 20 20 19 16 13 10 8 7 5
14 13 12 12 11 10 11 12 11 9 9 8 5 5 4 4 4 2 2 1 1 2 3 3 5 6 6 5 7 10 14 16 20 20 19 19 18 16 14 11 9 7 7
11 12 12 10 10 9 11 13 13 12 8 8 6 4 3 2 2 4 3 2 1 1 1 2 3 3 5 5 5 8 12 14 18 20 19 18 17 15 13 11 10 10 9
11 11 13 9 9 9 10 11 12 15 12 10 7 5 5 4 5 4 4 3 2 1 1 1 1 2 3 4 6 10 10 9 11 13 14 14 14 13 12 13 13 12 11
13 16 17 13 12 11 11 11 12 13 13 11 9 7 6 5 4 5 5 4 3 1 1 1 1 1 2 3 4 11 10 11 11 12 12 11 10 12 14 14 14 13 13
14 18 19 18 18 16 15 12 11 13 12 11 10 8 6 6 4 4 5 6 4 1 0 1 1 0 1 2 6 9 8 13 13 14 14 13 13 13 13 14 14 14 13
15 19 20 19 19 18 16 14 11 12 11 10 9 7 6 5 4 3 4 5 7 5 3 2 1 0 1 2 6 5 6 12 14 14 14 14 14 14 14 14 14 14 14
17 19 19 19 19 17 15 13 11 10 10 8 6 6 6 4 4 3 4 4 4 5 4 3 2 0 1 2 6 4 6 14 14 15 15 14 14 15 14 14 14 14 14
18 18 19 19 18 17 17 14 11 9 7 6 3 3 3 3 4 4 4 4 4 4 4 2 1 1 2 3 4 3 4 5 7 14 15 15 14 14 13 13 13 14 14
17 17 17 18 18 17 17 17 16 12 8 6 3 2 2 2 4 4 4 4 4 3 4 3 1 1 2 2 3 4 3 4 5 13 16 15 14 14 13 12 12 12 13
17 17 16 17 17 15 15 17 17 16 13 11 8 6 5 3 4 4 4 4 3 3 3 3 2 2 2 2 3 3 3 2 2 7 13 14 14 13 12 11 11 11 12
16 17 15 15 16 15 12 14 15 15 15 13 12 11 10 7 5 5 4 4 3 3 3 3 3 2 2 1 3 3 3 3 3 2 5 7 9 9 9 10 11 10 10
17 16 15 14 14 13 11 11 11 13 14 14 14 13 14 17 16 8 5 4 4 3 2 2 3 3 2 1 2 2 4 4 4 3 4 4 5 6 5 9 11 13 13
16 16 15 13 14 13 19 18 13 9 10 12 12 12 12 15 17 18 17 14 10 6 3 2 2 3 3 2 1 2 5 5 3 1 4 4 4 6 5 5 14 17 16
14 14 14 13 13 16 24 18 16 8 8 9 10 10 9 11 13 11 15 18 17 19 14 4 4 4 3 2 1 2 2 3 4 1 3 4 4 6 5 8 16 17 16
11 11 12 13 13 17 26 20 13 7 6 7 8 8 8 9 9 10 9 9 9 9 10 9 7 7 7 6 4 3 4 7 7 5 3 4 3 4 5 6 13 15 14
10 10 10 12 13 16 24 24 13 4 5 6 8 9 8 6 14 14 9 8 9 10 16 21 21 20 21 18 11 4 3 4 4 4 5 3 3 3 3 4 7 13 13
12 12 11 10 11 12 21 23 16 4 5 6 6 9 12 12 17 16 8 7 8 8 8 10 14 16 14 17 19 11 6 4 4 4 5 3 3 3 4 2 3 4 6
Wind_Direction
349 340 330 321 308 293 276 272 263 260 257 255 249 242 240 234 234 236 246 248 249 251 255 252 235 223 215 208 204 203 204 205 206 207 206 205 203 197 192 186 178 178 193
350 344 335 327 319 308 285 265 261 261 262 256 256 248 244 240 236 235 236 245 245 246 249 250 245 231 222 214 208 206 206 208 209 209 209 209 209 207 205 204 197 188 193
352 346 339 335 331 319 300 279 262 247 248 246 250 250 245 241 237 237 235 234 241 243 244 246 246 235 225 219 213 209 208 211 211 210 210 211 213 214 213 211 205 196 194
351 345 337 333 331 324 308 290 271 259 250 241 243 245 239 238 238 236 231 228 229 236 240 241 241 237 228 225 222 217 212 211 211 210 209 209 209 212 213 211 204 198 196
348 341 329 326 328 323 314 300 284 253 253 251 246 244 234 231 235 237 233 229 225 226 229 237 236 234 227 226 228 227 222 216 212 211 208 204 205 208 208 206 201 197 197
341 335 325 326 325 322 320 312 295 274 247 246 253 249 238 232 230 232 236 234 227 225 224 226 231 232 228 223 225 228 227 224 218 212 206 201 203 204 203 201 199 198 202
335 330 328 325 323 317 312 307 299 285 266 237 238 260 261 242 234 232 230 232 231 227 222 221 221 219 224 226 221 223 225 225 223 218 208 200 199 200 199 200 202 205 211
331 330 328 323 319 316 312 310 306 291 275 227 208 225 266 289 255 235 230 229 233 225 221 218 214 213 210 208 217 219 221 224 225 224 215 204 197 196 195 198 206 213 218
329 326 324 322 318 315 311 310 304 292 283 267 220 199 199 223 245 264 235 230 235 225 226 219 213 211 209 208 208 216 215 220 225 225 218 207 200 195 191 195 205 211 205
322 322 321 318 315 314 310 308 307 298 283 274 252 229 222 189 178 217 261 239 217 222 232 231 223 217 209 209 212 211 210 212 219 218 214 209 203 196 195 197 200 182 143
310 308 308 307 307 306 304 304 306 299 285 269 254 228 219 235 200 162 202 234 228 205 241 239 226 216 205 203 206 211 207 210 216 213 208 204 203 199 198 194 174 144 129
319 312 310 300 296 295 296 298 297 294 286 271 257 231 203 186 189 173 170 187 206 243 293 289 218 202 190 191 198 189 182 183 192 189 185 187 190 187 166 142 135 130 122
328 327 325 317 311 301 294 290 287 287 282 270 254 241 235 224 186 171 158 156 169 226 316 292 286 211 181 166 168 157 147 133 124 124 126 129 131 134 135 133 130 125 117
325 325 325 320 315 308 301 290 285 281 276 265 254 240 236 230 202 177 161 147 140 141 332 263 309 252 170 158 157 142 139 133 129 128 127 126 125 128 132 131 128 125 121
325 328 327 324 319 312 303 292 281 280 275 263 249 234 229 220 200 183 158 150 146 156 199 231 241 231 120 126 159 141 141 146 143 143 141 140 138 136 134 131 130 128 125
328 330 332 329 327 324 317 304 287 282 274 263 245 221 211 200 179 162 145 127 127 137 169 208 210 175 138 130 159 138 148 149 149 148 147 144 142 138 136 134 132 130 127
330 334 336 335 338 343 341 333 320 305 292 280 259 206 192 173 149 136 127 120 114 119 138 160 124 106 120 142 141 132 140 144 152 153 152 148 143 141 139 137 134 132 130
333 335 339 340 344 353 355 353 348 346 348 339 337 68 78 106 101 101 105 106 115 122 132 148 141 115 118 148 143 146 151 156 155 165 159 155 152 151 149 145 141 138 135
335 336 341 343 344 353 7 5 4 1 6 7 5 27 39 63 80 81 90 98 106 114 121 136 139 95 86 96 117 121 129 121 150 170 166 163 162 160 158 153 149 145 141
336 337 340 343 343 346 11 17 10 7 10 13 13 20 25 33 59 74 76 81 99 114 131 136 131 112 96 71 122 132 122 97 77 88 140 139 142 132 136 136 134 132 132
339 337 339 345 345 344 2 33 20 12 12 15 16 17 20 24 31 54 78 71 73 82 113 135 134 128 119 103 134 131 126 110 61 57 88 72 83 77 80 104 109 114 112
338 340 341 344 346 345 356 29 38 18 18 19 17 13 16 24 20 29 49 61 65 63 59 83 113 126 108 71 62 123 135 137 122 38 94 67 74 85 76 83 102 101 99
337 340 342 345 344 341 355 18 34 33 25 25 22 16 16 21 29 26 34 39 41 45 48 53 60 69 87 52 58 94 98 95 110 61 98 96 77 85 73 89 95 92 89
335 336 338 343 343 342 351 7 28 33 25 20 16 15 19 19 41 48 44 43 39 41 52 54 57 53 61 56 46 69 104 100 83 35 26 110 99 82 67 57 83 84 80
336 336 339 342 344 341 345 358 18 12 25 15 10 12 22 23 53 61 52 45 43 38 51 61 61 55 51 48 42 48 77 107 96 45 16 86 101 93 75 51 57 71 69
343 345 342 342 343 338 344 352 13 13 25 20 13 6 22 55 65 66 56 50 53 46 49 54 54 50 46 42 42 36 27 66 95 83 14 60 86 105 101 70 52 49 46